Regional Weather Roundup
Issued by NWS

Home | Current Version | Previous Version | Graphics & Text | Print | Product List | Glossary On
Versions: 1 2 3 4 5 6 7 8 9 10 11 12 13 14 15 16 17 18 19 20 21 22 23 24 25 26 27 28 29 30 31 32 33 34 35 36 37 38 39 40 41 42 43 44 45 46 47 48 49 50
000
ASUS43 KBIS 310620
RWRND

NORTH DAKOTA REGIONAL WEATHER ROUNDUP
NATIONAL WEATHER SERVICE BISMARCK ND
100 AM CDT THU JUL 31 2014

NOTE: "FAIR" INDICATES FEW OR NO CLOUDS BELOW 12,000 FEET WITH NO
SIGNIFICANT WEATHER AND/OR OBSTRUCTIONS TO VISIBILITY.


NDZ001>003-009>011-017-310700-
NORTHWEST NORTH DAKOTA

CITY           SKY/WX    TMP DP  RH WIND       PRES   REMARKS
WILLISTON      MOCLDY    69  53  56 NE8       30.16R
6HR MIN TEMP:  66; 6HR MAX TEMP:  84;

MINOT          CLEAR     62  56  80 SW5       30.10R
MINOT AFB      CLEAR     56  56  99 W8        30.09S
$$

NDZ018>021-031>035-040>046-310700-
SOUTHWEST NORTH DAKOTA

CITY           SKY/WX    TMP DP  RH WIND       PRES   REMARKS
BISMARCK       MOCLDY    63  58  83 CALM      30.11S
6HR MIN TEMP:  63; 6HR MAX TEMP:  80;

DICKINSON      PTCLDY    58  53  84 S5        30.13F
GARRISON         N/A     59  57  93 NW5       30.12R
6HR MIN TEMP:  59; 6HR MAX TEMP:  80;

HETTINGER ARPT CLEAR     54  51  90 CALM      30.15F
$$

NDZ004>008-012>016-024-026-027-054-310700-
NORTHEAST NORTH DAKOTA

CITY           SKY/WX    TMP DP  RH WIND       PRES   REMARKS
GRAND FORKS    CLEAR     61  57  87 W6        30.04S
GRND FRKS AFB  CLEAR     60  60  99 W3        30.05S
DEVILS LAKE    CLEAR     64  59  82 CALM      30.07S
$$

NDZ022-023-025-028>030-036>039-047>053-310700-
SOUTHEAST NORTH DAKOTA

CITY           SKY/WX    TMP DP  RH WIND       PRES   REMARKS
FARGO          MOCLDY    61  54  77 CALM      30.05R
6HR MIN TEMP:  61; 6HR MAX TEMP:  80;

JAMESTOWN      PTCLDY    62  55  77 CALM      30.09S
$$




USA.gov is the U.S. government's official web portal to all federal, state and local government web resources and services.